ATLAS 5 CENTAUR DEB, 57598

Orbit data source: Space-Track

ATLAS 5 CENTAUR DEB, 57598 is space debris in HEO originally from a launch on Wed, 17 Oct 2018 UTC launched from the Air Force Eastern Test Range (AFETR). Debris objects in space refer to the collection of defunct objects orbiting the Earth. Examples of debris include non-operational satellites, rocket bodies, and fragments generated from explosions, collisions, or faulty payload assembly.

Loading next visibility...
Identifier
57598, 2018-079HZ
Orbit
HEO
Country
Flag of USUS
Related business
Flag of USUnited Launch Alliance/Lockheed Martin (US)
Manufacturer
ULA Decatur
Mission
Spacecraft
Bus & Motor
Unknown
Mass
Unknown
Launch date (UTC)
2018-10-17 (7 years ago)
Launch vehicle
Unknown
Launch site
Air Force Eastern Test Range (AFETR)
Object type
Payload
Rocket body
Debris
Shape & HBR
Unknown shape, 1.1 m
Radar Cross Section
RCS unknown

Expand to show TLE details & history
Last TLE update: 2 days ago

TLE from 2 days ago
0 ATLAS 5 CENTAUR DEB
1 57598U 18079HZ  25339.52858805 -.00000102  00000-0  00000-0 0  9996
2 57598  13.0583  52.0969 4621012 283.0933  30.7452  1.82938621 41838
Epoch: 2025-12-05T12:41Z
TLE epoch observation values (Epoch: 2025-12-05T12:41:10.007Z)
Latitude
-0.00001°
Longitude
147.14352°
Altitude
13,755.461 km
Speed
5.048 km/s
True Right ascension
03h 28m 01s
True Declination
0° 00' 00"
Sunlit
Object was in daylight at epoch
Visualization orbit readout
Latitude
Unknown
Longitude
Unknown
Altitude
Unknown
Speed
Unknown
Apparent Right ascension
Unknown
Apparent Declination
Unknown
Sunlit
N/A
Visualization observer readout
Local Sidereal Time
21:28:38
Azimuth
Unknown
Elevation
Unknown
Doppler factor
Unknown
Orbital elements
Apogee altitude
34,914.666 km
Perigee altitude
8,813.253 km
Semi-major axis
28,242.096 km
Eccentricity
0.4621
Inclination
13.0583°
RAAN
52.0969°
Arg. of periapsis
283.0933°
True anomaly
76.92608°
Mean anomaly
30.7452°
Eccentric anomaly
51.4521°
Mean motion
0.4573 °/min
Orbital period
787.24 mins
BSTAR
0
Loading maneuver chart data...
Computing Atmospheric mass density...

Documentation

Showing up to 5 results
|